Location: Branche des Alpilles
(43.6087°N, 4.6976°E)
Time: 10:59:20
(UTC+00:00)

Cosmos 1470 Rocket - Pass Details

Date: 30 November 2020
Orbit: 604 x 633 km, 82.5° (Epoch: 25 January)

Event Time Altitude Azimuth Distance (km) Brightness Sun altitude
Rises 16:50:11 0° 1° (N) 2,873 6.7 -8.0°
Reaches altitude 10° 16:52:38 10° 12° (NNE) 1,962 5.8 -8.4°
Maximum altitude 16:56:28 30° 75° (ENE) 1,089 4.3 -9.1°
Drops below altitude 10° 17:00:17 10° 137° (SE) 1,949 5.9 -9.7°
Sets 17:02:42 0° 148° (SSE) 2,849 6.8 -10.1°
